Aspen, CO

2:43 AM MDT on August 28, 2016 (GMT -0600)
Aspen-Pitkin County / Sardy Field

Weather History for KASE - September, 2013

Change the Weather History Date:

Monday, September 9, 2013

  Actual Average Record
Temperature  
Mean Temperature 56 °F 56 °F  
Max Temperature 62 °F 71 °F 79 °F (2012)
Min Temperature 49 °F 41 °F 28 °F (2001)
Degree Days  
Heating Degree Days 9 9  
Month to date heating degree days 13 72  
Since 1 July heating degree days 148 268  
Cooling Degree Days 0 0  
Month to date cooling degree days 9 0  
Year to date cooling degree days 69 39  
Growing Degree Days 6 (Base 50)    
Moisture  
Dew Point 51 °F    
Average Humidity 86    
Maximum Humidity 100    
Minimum Humidity 72    
Precipitation  
Precipitation 0.18 in 0.06 in 0.40 in (2014)
Month to date precipitation 0.31 0.48  
Year to date precipitation 10.27 11.94  
Sea Level Pressure  
Sea Level Pressure 29.96 in    
Wind  
Wind Speed 3 mph (SE)    
Max Wind Speed 17 mph    
Max Gust Speed 24 mph    
Visibility 10 miles    
Events Rain , Thunderstorm    
T = Trace of Precipitation, MM = Missing Value Source: NWS Daily Summary

Daily Weather History Graph

Daily Weather History Graph

Search for Another Location

Airport or City:

Trip Planner

Search our weather history database for the weather conditions in past years. The results will help you decide how hot, cold, wet, or windy it might be!

Date:

Astronomy

Sep. 09, 2013 Rise Set
Actual Time 6:43 AM MDT 7:25 PM MDT
Civil Twilight 6:16 AM MDT 7:52 PM MDT
Nautical Twilight 5:44 AM MDT 8:23 PM MDT
Astronomical Twilight 5:11 AM MDT 8:56 PM MDT
Moon 11:06 AM MDT (9/9) 9:45 PM MDT (9/9)
Length of Visible Light 13h 35m
Length of Day
12h 41m
Waxing Crescent, 19% of the Moon is Illuminated
Sep 9
Waxing Crescent
Sep 12
First Quarter
Sep 19
Full
Sep 26
Last Quarter
Oct 4
New

Hourly Weather History & Observations

Time (MDT) Temp. Dew Point Humidity Pressure Visibility Wind Dir Wind Speed Gust Speed Precip Events Conditions
12:36 AM 55.4 °F 53.6 °F 94% 30.22 in 2.5 mi Variable 5.8 mph - 0.09 in Rain Heavy Rain
12:53 AM 55.9 °F 54.0 °F 93% 29.84 in 10.0 mi North 3.5 mph - 0.09 in Rain , Thunderstorm Light Rain
1:04 AM 55.4 °F 53.6 °F 94% 30.22 in 10.0 mi Calm Calm - 0.00 in Thunderstorm Mostly Cloudy
1:11 AM 55.4 °F 53.6 °F 94% 30.22 in 10.0 mi Calm Calm - 0.00 in   Mostly Cloudy
1:53 AM 54.0 °F 53.1 °F 97% 29.84 in 10.0 mi Calm Calm - 0.00 in   Scattered Clouds
2:53 AM 51.1 °F 51.1 °F 100% 29.83 in 10.0 mi Calm Calm - 0.01 in   Partly Cloudy
3:08 AM 51.8 °F 51.8 °F 100% 30.21 in 10.0 mi North 3.5 mph - N/A   Mostly Cloudy
3:17 AM 50.0 °F 50.0 °F 100% 30.20 in 10.0 mi Calm Calm - N/A   Mostly Cloudy
3:24 AM 51.8 °F 51.8 °F 100% 30.20 in 10.0 mi Calm Calm - N/A   Scattered Clouds
3:35 AM 51.8 °F 51.8 °F 100% 30.20 in 10.0 mi Calm Calm - N/A   Mostly Cloudy
3:53 AM 51.1 °F 51.1 °F 100% 29.83 in 10.0 mi Calm Calm - N/A   Overcast
4:48 AM 53.6 °F 51.8 °F 94% 30.19 in 10.0 mi SE 4.6 mph - N/A   Overcast
4:53 AM 53.1 °F 52.0 °F 96% 29.81 in 10.0 mi SSE 5.8 mph - N/A   Overcast
5:25 AM 51.8 °F 51.8 °F 100% 30.19 in 10.0 mi SW 5.8 mph - N/A   Scattered Clouds
5:53 AM 51.1 °F 50.0 °F 96% 29.84 in 10.0 mi SSW 4.6 mph - N/A   Partly Cloudy
6:53 AM 50.0 °F 48.0 °F 93% 29.86 in 10.0 mi Calm Calm - N/A   Scattered Clouds
7:53 AM 52.0 °F 50.0 °F 93% 29.86 in 10.0 mi Calm Calm - N/A   Mostly Cloudy
8:53 AM 53.1 °F 50.0 °F 89% 29.88 in 10.0 mi Calm Calm - N/A   Mostly Cloudy
9:53 AM 54.0 °F 50.0 °F 86% 29.87 in 10.0 mi Calm Calm - 0.00 in   Mostly Cloudy
10:53 AM 59.0 °F 52.0 °F 78% 29.84 in 10.0 mi North 4.6 mph - N/A   Mostly Cloudy
11:53 AM 59.0 °F 53.1 °F 81% 29.86 in 10.0 mi NNE 4.6 mph - N/A   Mostly Cloudy
12:53 PM 60.1 °F 52.0 °F 75% 29.86 in 10.0 mi Variable 3.5 mph - N/A   Mostly Cloudy
1:53 PM 57.9 °F 55.0 °F 90% 29.88 in 9.0 mi North 8.1 mph - 0.01 in Rain Light Rain
2:53 PM 61.0 °F 53.1 °F 75% 29.86 in 10.0 mi WNW 5.8 mph - 0.00 in   Mostly Cloudy
3:53 PM 62.1 °F 53.1 °F 72% 29.82 in 10.0 mi NNE 6.9 mph - 0.00 in   Mostly Cloudy
4:53 PM 59.0 °F 51.1 °F 75% 29.87 in 10.0 mi North 11.5 mph 21.9 mph N/A   Overcast
5:53 PM 52.0 °F 50.0 °F 93% 29.94 in 8.0 mi Calm Calm - 0.14 in Rain Light Rain
6:53 PM 53.1 °F 51.1 °F 93% 29.94 in 10.0 mi ESE 5.8 mph - 0.02 in   Overcast
7:53 PM 53.1 °F 50.0 °F 89% 29.93 in 10.0 mi SSE 4.6 mph - N/A   Overcast
8:53 PM 52.0 °F 50.0 °F 93% 29.93 in 10.0 mi South 3.5 mph - 0.00 in   Overcast
9:53 PM 52.0 °F 50.0 °F 93% 29.92 in 10.0 mi Calm Calm - N/A   Overcast
10:53 PM 51.1 °F 50.0 °F 96% 29.91 in 10.0 mi South 4.6 mph - N/A   Overcast
11:53 PM 51.1 °F 48.9 °F 92% 29.91 in 10.0 mi SSW 3.5 mph - N/A   Mostly Cloudy